Time,TemperatureF,DewpointF,PressureIn,WindDirection,WindDirectionDegrees,WindSpeedMPH,WindSpeedGustMPH,Humidity,HourlyPrecipIn,Conditions,Clouds,dailyrainin,SoftwareType,DateUTC
2013-05-31 01:04:00,71.5,67.4,29.89,NE,53,1.0,-999.0,87,0.00,,,0.00,PyWeather,2013-05-31 11:04:00,
2013-05-31 01:09:00,71.3,67.2,29.89,NE,54,1.0,-999.0,87,0.00,,,0.00,PyWeather,2013-05-31 11:09:00,
2013-05-31 01:14:00,71.2,67.5,29.89,NE,55,1.0,-999.0,88,0.00,,,0.00,PyWeather,2013-05-31 11:14:00,
2013-05-31 01:25:00,70.9,67.2,29.89,North,9,1.0,-999.0,88,0.00,,,0.00,PyWeather,2013-05-31 11:25:00,
2013-05-31 01:30:00,71.0,67.3,29.89,North,10,0.0,-999.0,88,0.00,,,0.00,PyWeather,2013-05-31 11:30:00,
2013-05-31 01:40:00,71.4,67.7,29.89,North,11,1.0,-999.0,88,0.00,,,0.00,PyWeather,2013-05-31 11:40:00,
2013-05-31 01:45:00,71.4,67.7,29.88,North,11,1.0,-999.0,88,0.00,,,0.00,PyWeather,2013-05-31 11:45:00,
2013-05-31 02:04:00,71.9,68.2,29.88,North,11,0.0,-999.0,88,0.00,,,0.00,PyWeather,2013-05-31 12:04:00,
2013-05-31 02:10:00,72.0,68.3,29.88,North,10,1.0,-999.0,88,0.00,,,0.00,PyWeather,2013-05-31 12:10:00,
2013-05-31 02:15:00,71.8,67.7,29.88,North,11,1.0,-999.0,87,0.00,,,0.00,PyWeather,2013-05-31 12:15:00,
2013-05-31 02:20:00,71.5,67.4,29.88,North,11,0.0,-999.0,87,0.00,,,0.00,PyWeather,2013-05-31 12:20:00,
2013-05-31 02:25:00,71.3,67.2,29.88,North,11,0.0,-999.0,87,0.00,,,0.00,PyWeather,2013-05-31 12:25:00,
2013-05-31 02:30:00,71.2,67.1,29.87,North,10,0.0,-999.0,87,0.00,,,0.00,PyWeather,2013-05-31 12:30:00,
2013-05-31 02:45:00,71.1,67.4,29.87,North,10,1.0,-999.0,88,0.00,,,0.00,PyWeather,2013-05-31 12:45:00,
2013-05-31 02:50:00,71.1,67.4,29.87,ENE,74,2.0,-999.0,88,0.00,,,0.00,PyWeather,2013-05-31 12:50:00,
2013-05-31 02:55:00,71.1,67.4,29.87,ENE,72,3.0,-999.0,88,0.00,,,0.00,PyWeather,2013-05-31 12:55:00,
2013-05-31 03:00:00,70.8,66.7,29.87,East,89,3.0,-999.0,87,0.00,,,0.00,PyWeather,2013-05-31 13:00:00,
2013-05-31 03:05:00,70.6,66.5,29.87,East,88,3.0,-999.0,87,0.00,,,0.00,PyWeather,2013-05-31 13:05:00,
2013-05-31 03:10:00,70.2,66.2,29.87,ENE,76,2.0,-999.0,87,0.00,,,0.00,PyWeather,2013-05-31 13:10:00,
2013-05-31 03:15:00,70.3,66.3,29.87,ENE,77,2.0,-999.0,87,0.00,,,0.00,PyWeather,2013-05-31 13:15:00,
2013-05-31 03:29:00,69.5,65.5,29.86,North,5,1.0,-999.0,87,0.00,,,0.00,PyWeather,2013-05-31 13:29:00,
2013-05-31 03:34:00,69.2,65.2,29.87,NNE,15,2.0,-999.0,87,0.00,,,0.00,PyWeather,2013-05-31 13:34:00,
2013-05-31 03:39:00,69.2,65.5,29.86,NNE,15,2.0,-999.0,88,0.00,,,0.00,PyWeather,2013-05-31 13:39:00,
2013-05-31 03:44:00,69.4,65.7,29.86,NNE,15,0.0,-999.0,88,0.00,,,0.00,PyWeather,2013-05-31 13:44:00,
2013-05-31 03:49:00,69.4,65.7,29.86,NNE,22,0.0,-999.0,88,0.00,,,0.00,PyWeather,2013-05-31 13:49:00,
2013-05-31 03:54:00,69.2,65.5,29.86,ENE,60,0.0,-999.0,88,0.00,,,0.00,PyWeather,2013-05-31 13:54:00,
2013-05-31 03:59:00,68.9,65.2,29.86,East,84,0.0,-999.0,88,0.00,,,0.00,PyWeather,2013-05-31 13:59:00,
2013-05-31 04:04:00,69.0,65.3,29.86,East,86,1.0,-999.0,88,0.00,,,0.00,PyWeather,2013-05-31 14:04:00,
2013-05-31 04:09:00,69.2,65.5,29.87,East,86,1.0,-999.0,88,0.00,,,0.00,PyWeather,2013-05-31 14:09:00,
2013-05-31 04:14:00,69.2,65.5,29.87,East,86,1.0,-999.0,88,0.00,,,0.00,PyWeather,2013-05-31 14:14:00,
2013-05-31 04:19:00,69.1,65.4,29.87,East,86,0.0,-999.0,88,0.00,,,0.00,PyWeather,2013-05-31 14:19:00,
2013-05-31 04:24:00,69.2,65.5,29.87,East,86,0.0,-999.0,88,0.00,,,0.00,PyWeather,2013-05-31 14:24:00,
2013-05-31 04:29:00,69.2,65.5,29.86,East,86,0.0,-999.0,88,0.00,,,0.00,PyWeather,2013-05-31 14:29:00,
2013-05-31 04:34:00,69.4,65.7,29.86,East,86,0.0,-999.0,88,0.00,,,0.00,PyWeather,2013-05-31 14:34:00,
2013-05-31 04:44:00,69.7,66.3,29.87,East,86,0.0,-999.0,89,0.00,,,0.00,PyWeather,2013-05-31 14:44:00,
2013-05-31 04:49:00,70.9,67.8,29.87,NE,36,1.0,-999.0,90,0.00,,,0.00,PyWeather,2013-05-31 14:49:00,
2013-05-31 04:54:00,70.8,67.1,29.87,NE,35,1.0,-999.0,88,0.00,,,0.00,PyWeather,2013-05-31 14:54:00,
2013-05-31 04:59:00,70.2,66.5,29.87,NE,35,0.0,-999.0,88,0.00,,,0.00,PyWeather,2013-05-31 14:59:00,
2013-05-31 05:04:00,70.0,66.3,29.87,NE,36,0.0,-999.0,88,0.00,,,0.00,PyWeather,2013-05-31 15:04:00,
2013-05-31 05:09:00,69.8,66.1,29.87,NE,38,0.0,-999.0,88,0.00,,,0.00,PyWeather,2013-05-31 15:09:00,
2013-05-31 05:14:00,69.5,65.8,29.88,NE,38,0.0,-999.0,88,0.00,,,0.00,PyWeather,2013-05-31 15:14:00,
2013-05-31 05:19:00,69.5,65.8,29.88,NE,38,0.0,-999.0,88,0.00,,,0.00,PyWeather,2013-05-31 15:19:00,
2013-05-31 05:33:00,67.9,64.2,29.89,NE,37,1.0,-999.0,88,0.00,,,0.00,PyWeather,2013-05-31 15:33:00,
2013-05-31 05:52:00,67.9,64.2,29.89,NE,38,1.0,-999.0,88,0.00,,,0.00,PyWeather,2013-05-31 15:52:00,
2013-05-31 05:58:00,68.2,64.8,29.89,NE,42,1.0,-999.0,89,0.00,,,0.00,PyWeather,2013-05-31 15:58:00,
2013-05-31 06:03:00,68.1,64.7,29.89,ENE,70,1.0,-999.0,89,0.00,,,0.00,PyWeather,2013-05-31 16:03:00,
2013-05-31 06:08:00,68.1,64.7,29.89,East,80,1.0,-999.0,89,0.00,,,0.00,PyWeather,2013-05-31 16:08:00,
2013-05-31 06:13:00,68.1,64.7,29.90,East,80,1.0,-999.0,89,0.00,,,0.00,PyWeather,2013-05-31 16:13:00,